Tracking 29892 objects as of 21-Nov-2024
HD Live streaming from Space Station
objects crossing your sky now

BBREEZE-M DEB (TANK)

Track BBREEZE-M DEB (TANK) now!
10-day predictions


NORAD ID: 39477
Int'l Code: 2013-073B
Perigee: 351.7 km
Apogee: 14,468.2 km
Inclination: 50.7 °
Period: 268.3 minutes
Semi major axis: 13780 km
RCS: Unknown
Launch date: December 8, 2013
Source: Commonwealth of Independent States (former USSR) (CIS)
Launch site: TYURATAM MISSILE AND SPACE COMPLEX (TTMTR)

Note: This is SATELLITE DEBRIS
Your satellite tracking list
Your tracking list is empty




NASA's NSSDC Master Catalog

Two Line Element Set (TLE):
1 39477U 13073B   24324.26544973  .00001959  00000-0  67102-3 0  9992
2 39477  50.7388  71.5170 5121750  86.6731 328.0646  5.36641331211089
Source of the keplerian elements: AFSPC